Flag for Brazil Weather past 2 weeks in Cuiabá, Mato Grosso, Brazil

Now
72 °F

Clear.


Feels Like: 71 °F
Forecast: 63 / 91 °F
Wind: 2 mph from Southwest

Location: Cuiaba Aeroporto

Current Time: Jul 30, 2014 at 1:09:05 AM

Latest Report: Jul 30, 2014 at 12:00 AM


Visibility: 10 mi

Pressure: 30.04 "Hg

Humidity: 83%

Dew point: 66 °F

Location of CuiabáLocation

Historic Weather in Cuiabá — Graph

°F

Cuiabá temperature yesterday

Maximum temperature yesterday: 90 °F (at 2:00 PM)
Minimum temperature yesterday: 64 °F (at 6:00 AM)
Average temperature yesterday: 75 °F

Past Weeks' High & Low Weather Summary

 TemperatureHumidityPressure
High95 °F (Jul 16, 3:00 PM)100% (Jul 21, 7:00 AM)30.21 "Hg (Jul 21, 7:00 AM)
Low55 °F (Jul 24, 5:00 PM)26% (Jul 21, 1:00 PM)29.83 "Hg (Jul 23, 2:00 PM)
Average72 °F73%30.05 "Hg
* Reported Midnight between Jul 14 and Jul 15 — Midnight between Jul 29 and Jul 30, Cuiabá, Weather by CustomWeather, © 2014

Note: Actual official high and low records may vary slightly from our data, if they occured in-between our weather recording intervals... More about our weather records

Advertising

Cuiabá weather history for previous 24 hours

 ConditionsComfort  
Time TempWeatherWind HumidityBarometerVisibility
12:00 AM
Jul 30
72 °FClear.2 mph83%30.04 "Hg10 mi
11:00 PM
Jul 29
72 °FClear.2 mph78%30.04 "Hg10 mi
10:00 PM72 °FClear.3 mph78%30.04 "Hg10 mi
9:00 PM75 °FClear.5 mph69%30.04 "Hg10 mi
8:00 PM77 °FClear.5 mph65%30.04 "Hg10 mi
7:00 PM79 °FClear.5 mph61%30.01 "Hg10 mi
6:00 PM81 °FClear.5 mph58%30.01 "Hg10 mi
5:00 PM86 °FSunny.7 mph46%29.98 "Hg10 mi
4:00 PM90 °FSunny.6 mph36%29.98 "Hg10 mi
2:00 PM90 °FSunny.3 mph36%30.01 "Hg10 mi
1:00 PM73 °FPassing clouds.7 mph89%29.83 "HgN/A
12:00 PM86 °FSunny.2 mph46%30.07 "Hg10 mi
11:00 AM84 °FSunny.3 mph48%30.09 "Hg10 mi
10:00 AM81 °FSunny.3 mph62%30.12 "Hg10 mi
9:00 AM73 °FSunny.3 mph78%30.12 "Hg10 mi
8:00 AM70 °FSunny.No wind88%30.09 "Hg10 mi
7:00 AM66 °FLight fog.2 mph94%30.09 "Hg5 mi
6:00 AM64 °FLight fog.5 mph100%30.07 "HgN/A
5:00 AM66 °FClear.3 mph100%30.07 "Hg10 mi
4:00 AM66 °FClear.5 mph100%30.07 "Hg10 mi
3:00 AM66 °FClear.5 mph100%30.07 "Hg10 mi
2:00 AM66 °FClear.2 mph100%30.07 "Hg10 mi
1:00 AM70 °FClear.No wind94%30.09 "Hg10 mi
Weather by CustomWeather, © 2014

See weather overviewHow to use our weather pages